WB3DCA Weather Reports


time (UTC)temp
C
wind
direction
speed
KPH
gust
KPH
rain 1hr
cm
rain 24hr
cm
rain mn
cm
humidity
%
barometer
mb
20260504224549 20 238 3.2 11.3 0.00 0.00 0.00 37 1007.1
20260504224043 20 259 4.8 9.7 0.00 0.00 0.00 36 1007.0
20260504223543 20 253 1.6 9.7 0.00 0.00 0.00 37 1007.0
20260504223049 20 250 3.2 11.3 0.00 0.00 0.00 36 1006.9
20260504222543 20 254 4.8 14.5 0.00 0.00 0.00 35 1006.9
20260504222042 20 273 6.4 14.5 0.00 0.00 0.00 36 1006.7
20260504221547 20 234 4.8 12.9 0.00 0.00 0.00 36 1006.7
20260504221042 20 248 4.8 11.3 0.00 0.00 0.00 36 1006.8
20260504220542 20 248 4.8 12.9 0.00 0.00 0.00 35 1006.8
20260504220052 20 251 4.8 12.9 0.00 0.00 0.00 36 1006.9
20260504215543 20 269 4.8 11.3 0.00 0.00 0.00 36 1006.9
20260504215041 20 240 3.2 16.1 0.00 0.00 0.00 36 1007.0
20260504214555 21 243 6.4 16.1 0.00 0.00 0.00 35 1007.0
20260504214045 21 263 8.0 16.1 0.00 0.00 0.00 34 1007.0
20260504213545 21 248 8.0 16.1 0.00 0.00 0.00 34 1007.0
20260504213051 21 281 1.6 12.9 0.00 0.00 0.00 34 1006.9
20260504212543 21 0 3.2 16.1 0.00 0.00 0.00 36 1007.0
20260504212045 21 240 8.0 16.1 0.00 0.00 0.00 33 1007.1
20260504211552 21 248 8.0 14.5 0.00 0.00 0.00 33 1006.9
20260504211044 21 248 6.4 12.9 0.00 0.00 0.00 34 1006.8
20260504210545 21 256 4.8 14.5 0.00 0.00 0.00 34 1006.8
20260504210105 21 258 8.0 14.5 0.00 0.00 0.00 34 1006.8
20260504205541 21 244 8.0 16.1 0.00 0.00 0.00 34 1006.8
20260504205042 21 243 8.0 16.1 0.00 0.00 0.00 33 1006.8
20260504204559 21 234 6.4 17.7 0.00 0.00 0.00 33 1007.0
20260504204043 21 254 9.7 17.7 0.00 0.00 0.00 32 1006.8
20260504203542 22 205 6.4 16.1 0.00 0.00 0.00 32 1006.8
20260504203104 22 260 3.2 16.1 0.00 0.00 0.00 32 1006.8
20260504202542 22 229 3.2 9.7 0.00 0.00 0.00 31 1006.7
20260504202042 22 286 1.6 19.3 0.00 0.00 0.00 33 1006.7
20260504201546 22 289 4.8 19.3 0.00 0.00 0.00 33 1006.8
20260504201043 22 241 11.3 19.3 0.00 0.00 0.00 32 1007.0
20260504200542 22 257 4.8 17.7 0.00 0.00 0.00 31 1007.0
20260504200051 22 269 6.4 17.7 0.00 0.00 0.00 31 1006.9
20260504195541 22 245 6.4 12.9 0.00 0.00 0.00 33 1006.8
20260504195042 22 273 4.8 14.5 0.00 0.00 0.00 32 1006.9
20260504194555 22 269 4.8 17.7 0.00 0.00 0.00 31 1007.0
20260504194042 22 248 6.4 17.7 0.00 0.00 0.00 32 1007.1
20260504193543 22 250 8.0 16.1 0.00 0.00 0.00 30 1006.8
20260504193051 22 269 4.8 17.7 0.00 0.00 0.00 31 1007.0
20260504192545 22 277 4.8 17.7 0.00 0.00 0.00 30 1006.9
20260504192043 22 259 8.0 17.7 0.00 0.00 0.00 30 1007.0
20260504191552 22 224 4.8 14.5 0.00 0.00 0.00 31 1006.8
20260504191042 22 207 6.4 14.5 0.00 0.00 0.00 32 1007.0
20260504190543 22 312 6.4 16.1 0.00 0.00 0.00 31 1007.0
20260504190107 22 239 8.0 16.1 0.00 0.00 0.00 31 1007.0
20260504185541 22 236 6.4 16.1 0.00 0.00 0.00 32 1007.1
20260504185041 21 265 6.4 12.9 0.00 0.00 0.00 32 1007.1
20260504184551 21 271 4.8 17.7 0.00 0.00 0.00 32 1007.4
20260504184045 21 223 4.8 22.5 0.00 0.00 0.00 31 1007.2
20260504183542 21 263 9.7 22.5 0.00 0.00 0.00 31 1007.2
20260504183054 21 226 11.3 20.9 0.00 0.00 0.00 29 1007.1
20260504182543 22 250 4.8 20.9 0.00 0.00 0.00 30 1007.3
20260504182044 21 292 8.0 20.9 0.00 0.00 0.00 31 1007.2
20260504181553 22 250 6.4 17.7 0.00 0.00 0.00 31 1007.1
20260504181042 22 241 8.0 16.1 0.00 0.00 0.00 31 1007.3
20260504180544 22 232 4.8 17.7 0.00 0.00 0.00 31 1007.3
20260504180050 21 276 9.7 17.7 0.00 0.00 0.00 32 1007.3
20260504175543 21 245 8.0 19.3 0.00 0.00 0.00 33 1007.2
20260504175041 21 254 8.0 19.3 0.00 0.00 0.00 33 1007.6
20260504174555 21 244 6.4 19.3 0.00 0.00 0.00 32 1007.5
20260504174043 21 250 9.7 19.3 0.00 0.00 0.00 33 1007.4
20260504173543 21 244 8.0 17.7 0.00 0.00 0.00 34 1007.5
20260504173049 21 275 4.8 19.3 0.00 0.00 0.00 34 1007.4
20260504172542 21 235 8.0 19.3 0.00 0.00 0.00 32 1007.5
20260504172042 21 240 8.0 19.3 0.00 0.00 0.00 32 1007.6
20260504171551 21 255 11.3 24.1 0.00 0.00 0.00 32 1007.5
20260504171043 21 257 12.9 24.1 0.00 0.00 0.00 31 1007.6
20260504170543 21 236 4.8 20.9 0.00 0.00 0.00 34 1007.6
20260504151041 18 265 6.4 17.7 0.00 0.00 0.00 40 1008.7
20260504150541 17 246 6.4 20.9 0.00 0.00 0.00 40 1008.7
20260504141042 16 273 4.8 14.5 0.00 0.00 0.00 44 1009.4
20260504140542 16 271 3.2 12.9 0.00 0.00 0.00 43 1009.4
20260504130539 13 234 3.2 14.5 0.00 0.00 0.00 51 1009.8
20260504110544 8 257 0.0 3.2 0.00 0.00 0.00 66 1010.7
20260504100543 6 254 3.2 6.4 0.00 0.00 0.00 68 1010.7
20260504081559 5 0 0.0 0.0 0.00 0.00 0.00 69 1010.3
20260504081041 5 0 0.0 0.0 0.00 0.00 0.00 68 1010.3
20260504080541 5 0 0.0 0.0 0.00 0.00 0.00 68 1010.2
20260504050539 3 0 0.0 0.0 0.00 0.00 0.00 70 1010.6
20260504050108 3 0 0.0 0.0 0.00 0.00 0.00 70 1010.6
20260504045544 3 0 0.0 0.0 0.00 0.00 0.00 70 1010.6
20260504045044 3 0 0.0 0.0 0.00 0.00 0.00 71 1010.6
20260504044551 2 0 0.0 0.0 0.00 0.00 0.00 72 1010.6
20260504044041 2 0 0.0 0.0 0.00 0.00 0.00 72 1010.6
20260504043542 2 0 0.0 0.0 0.00 0.00 0.00 73 1010.6
20260504043101 2 0 0.0 0.0 0.00 0.00 0.00 73 1010.6
20260504042542 2 0 0.0 0.0 0.00 0.00 0.00 72 1010.4
20260504042043 2 0 0.0 0.0 0.00 0.00 0.00 73 1010.5
20260504041549 2 0 0.0 0.0 0.00 0.00 0.00 72 1010.6
20260504041042 2 0 0.0 0.0 0.00 0.00 0.00 73 1010.5
20260504040541 2 0 0.0 0.0 0.00 0.00 0.00 73 1010.5
20260504040055 2 0 0.0 0.0 0.00 0.00 0.00 73 1010.4
20260504035542 2 0 0.0 0.0 0.00 0.00 0.00 72 1010.4
20260504035043 2 0 0.0 0.0 0.00 0.00 0.00 72 1010.4
20260504034549 3 0 0.0 0.0 0.00 0.00 0.00 71 1010.4
20260504034042 2 0 0.0 0.0 0.00 0.00 0.00 72 1010.3
20260504033544 2 0 0.0 0.0 0.00 0.00 0.00 73 1010.3
20260504033056 2 0 0.0 0.0 0.00 0.00 0.00 74 1010.4
20260504032543 2 0 0.0 0.0 0.00 0.00 0.00 75 1010.3
20260504032047 2 0 0.0 0.0 0.00 0.00 0.00 76 1010.3
20260504031557 2 0 0.0 0.0 0.00 0.00 0.00 76 1010.3
20260504031042 2 0 0.0 0.0 0.00 0.00 0.00 75 1010.3
20260504030541 2 0 0.0 0.0 0.00 0.00 0.00 75 1010.3
20260504030048 2 0 0.0 0.0 0.00 0.00 0.00 76 1010.4
20260504025542 2 0 0.0 0.0 0.00 0.00 0.00 75 1010.4
20260504025043 2 0 0.0 0.0 0.00 0.00 0.00 75 1010.3
20260504024545 2 0 0.0 0.0 0.00 0.00 0.00 75 1010.3
20260504024043 2 0 0.0 0.0 0.00 0.00 0.00 74 1010.3
20260504023543 2 0 0.0 0.0 0.00 0.00 0.00 73 1010.2
20260504023045 2 0 0.0 0.0 0.00 0.00 0.00 73 1010.2
20260504022543 2 0 0.0 0.0 0.00 0.00 0.00 72 1010.3
20260504022043 3 0 0.0 0.0 0.00 0.00 0.00 72 1010.2
20260504021547 3 0 0.0 0.0 0.00 0.00 0.00 72 1010.2
20260504021042 3 0 0.0 0.0 0.00 0.00 0.00 72 1010.1
20260504020622 3 0 0.0 0.0 0.00 0.00 0.00 72 1010.1
20260504020048 3 0 0.0 0.0 0.00 0.00 0.00 71 1010.1
20260504015543 3 0 0.0 0.0 0.00 0.00 0.00 70 1010.0
20260504015043 3 0 0.0 0.0 0.00 0.00 0.00 70 1010.0
20260504014556 3 0 0.0 0.0 0.00 0.00 0.00 69 1010.0
20260504014044 4 0 0.0 0.0 0.00 0.00 0.00 68 1009.9
20260504013542 5 0 0.0 0.0 0.00 0.00 0.00 66 1009.8
20260504013047 5 0 0.0 0.0 0.00 0.00 0.00 65 1009.8
20260504012545 5 0 0.0 0.0 0.00 0.00 0.00 63 1009.8
20260504012043 5 0 0.0 0.0 0.00 0.00 0.00 62 1009.7
20260504011547 5 0 0.0 0.0 0.00 0.00 0.00 62 1009.7
20260504011042 5 0 0.0 0.0 0.00 0.00 0.00 62 1009.7
20260504010542 6 0 0.0 0.0 0.00 0.00 0.00 61 1009.6
20260504010110 6 0 0.0 0.0 0.00 0.00 0.00 59 1009.5
20260504005543 6 0 0.0 0.0 0.00 0.00 0.00 59 1009.4
20260504005043 6 0 0.0 0.0 0.00 0.00 0.00 58 1009.3
20260504004546 6 0 0.0 0.0 0.00 0.00 0.00 57 1009.1
20260504004046 6 0 0.0 0.0 0.00 0.00 0.00 56 1009.1
20260504003542 6 0 0.0 0.0 0.00 0.00 0.00 56 1009.1
20260504003048 7 0 0.0 0.0 0.00 0.00 0.00 55 1009.1
20260504002542 7 0 0.0 0.0 0.00 0.00 0.00 55 1009.1
20260504002042 7 0 0.0 0.0 0.00 0.00 0.00 55 1009.0
20260504001600 7 0 0.0 0.0 0.00 0.00 0.00 54 1009.1
20260504001042 7 0 0.0 1.6 0.00 0.00 0.00 54 1008.9
20260504000542 7 0 0.0 4.8 0.00 0.00 0.00 53 1008.9
20260504000052 7 0 0.0 4.8 0.00 0.00 0.00 53 1008.8
20260503235547 7 0 0.0 4.8 0.00 0.00 0.00 53 1008.9
20260503235043 8 0 0.0 6.4 0.00 0.00 0.00 53 1008.8
20260503234541 8 0 1.6 6.4 0.00 0.00 0.00 53 1008.8
20260503234041 8 0 0.0 4.8 0.00 0.00 0.00 52 1008.8
20260503233543 8 0 1.6 11.3 0.00 0.00 0.00 52 1008.7
20260503233059 8 167 1.6 11.3 0.00 0.00 0.00 51 1008.6
20260503232542 8 324 0.0 8.0 0.00 0.00 0.00 52 1008.6
20260503232041 8 211 1.6 8.0 0.00 0.00 0.00 51 1008.5
20260503231554 8 88 0.0 6.4 0.00 0.00 0.00 51 1008.4
20260503231043 8 184 0.0 6.4 0.00 0.00 0.00 51 1008.3
20260503230543 8 53 1.6 16.1 0.00 0.00 0.00 50 1008.4
20260503230054 9 279 1.6 17.7 0.00 0.00 0.00 49 1008.3
20260503225541 9 15 3.2 17.7 0.00 0.03 0.00 51 1008.2
20260503225043 9 292 1.6 17.7 0.00 0.03 0.00 51 1008.2